TimeMDT,TemperatureF,Dew PointF,Humidity,Sea Level PressureIn,VisibilityMPH,Wind Direction,Wind SpeedMPH,Gust SpeedMPH,PrecipitationIn,Events,Conditions,WindDirDegrees,DateUTC
12:53 AM,68.0,45.0,43,29.78,10.0,South,5.8,-,N/A,,Clear,180,2013-07-05 06:53:00
1:53 AM,66.0,46.0,48,29.77,10.0,NNW,5.8,-,N/A,,Clear,330,2013-07-05 07:53:00
2:53 AM,66.0,46.9,50,29.77,10.0,Calm,Calm,-,N/A,,Clear,0,2013-07-05 08:53:00
3:53 AM,60.1,46.0,60,29.78,10.0,Calm,Calm,-,N/A,,Clear,0,2013-07-05 09:53:00
4:53 AM,57.9,46.0,65,29.78,10.0,NW,3.5,-,N/A,,Clear,320,2013-07-05 10:53:00
5:53 AM,57.0,46.0,67,29.78,10.0,NNW,4.6,-,N/A,,Clear,340,2013-07-05 11:53:00
6:53 AM,60.1,48.0,64,29.79,10.0,NE,5.8,-,N/A,,Clear,40,2013-07-05 12:53:00
7:53 AM,64.9,48.9,56,29.79,10.0,ESE,3.5,-,N/A,,Clear,110,2013-07-05 13:53:00
8:53 AM,71.1,46.9,42,29.78,10.0,Calm,Calm,-,N/A,,Clear,0,2013-07-05 14:53:00
9:53 AM,75.0,48.0,38,29.77,10.0,Variable,6.9,-,N/A,,Clear,0,2013-07-05 15:53:00
10:53 AM,78.1,48.0,35,29.76,10.0,South,9.2,-,N/A,,Clear,170,2013-07-05 16:53:00
11:53 AM,84.0,46.0,26,29.73,10.0,South,8.1,-,N/A,,Clear,180,2013-07-05 17:53:00
12:53 PM,84.9,44.1,24,29.70,10.0,West,9.2,-,N/A,,Clear,260,2013-07-05 18:53:00
1:46 PM,80.6,42.8,26,30.04,10.0,Calm,Calm,-,0.00,Rain,Light Rain,0,2013-07-05 19:46:00
1:53 PM,81.0,44.1,27,29.73,10.0,South,4.6,-,0.00,,Mostly Cloudy,180,2013-07-05 19:53:00
2:53 PM,84.9,46.0,26,29.69,10.0,ESE,12.7,17.3,N/A,,Clear,110,2013-07-05 20:53:00
3:53 PM,89.1,42.1,19,29.67,10.0,SSW,16.1,25.3,N/A,,Clear,210,2013-07-05 21:53:00
4:53 PM,84.0,46.9,27,29.70,10.0,South,15.0,-,N/A,,Scattered Clouds,190,2013-07-05 22:53:00
5:53 PM,73.9,57.9,57,29.75,10.0,SSW,12.7,-,0.01,,Overcast,200,2013-07-05 23:53:00
6:53 PM,75.0,55.0,50,29.77,10.0,North,8.1,-,0.00,,Overcast,350,2013-07-06 00:53:00
7:53 PM,73.0,52.0,48,29.77,10.0,East,4.6,-,N/A,,Clear,100,2013-07-06 01:53:00
8:53 PM,69.1,55.0,61,29.77,10.0,NE,5.8,-,N/A,,Clear,50,2013-07-06 02:53:00
9:53 PM,66.9,55.9,68,29.78,10.0,Calm,Calm,-,N/A,,Clear,0,2013-07-06 03:53:00
10:53 PM,64.0,54.0,70,29.80,10.0,Calm,Calm,-,N/A,,Clear,0,2013-07-06 04:53:00
11:53 PM,64.9,54.0,68,29.75,10.0,ENE,4.6,-,N/A,,Clear,60,2013-07-06 05:53:00